,,,PA_Meas_PMT16A,,PR_Meas_QMR101_102,,RH_Meas_QMH101,,SR_Meas_QMS101,,TA_Meas_QMH101,,GenWind,,GenWind,
date,time,status,PA,status,PR,status,RH,status,SR,status,TA,status,DirAvg,status,SpdAvg,
2009-11-27, 00:00:04,VALID,1000.45,VALID,0,VALID,89.4268,VALID,0,VALID,23.5841,VALID,156,VALID,0,
2009-11-27, 00:01:04,VALID,1000.49,VALID,0,VALID,89.4115,VALID,0,VALID,23.5646,VALID,156,VALID,0.120703,
2009-11-27, 00:02:04,VALID,1000.44,VALID,0,VALID,89.2132,VALID,0,VALID,23.5841,VALID,130,VALID,0.727344,
2009-11-27, 00:03:04,VALID,1000.46,VALID,0,VALID,89.0682,VALID,0,VALID,23.5841,VALID,122,VALID,0.6875,
2009-11-27, 00:04:04,VALID,1000.46,VALID,0,VALID,88.9766,VALID,0,VALID,23.5841,VALID,122,VALID,0.429297,
2009-11-27, 00:05:04,VALID,1000.42,VALID,0,VALID,89.1826,VALID,0,VALID,23.6036,VALID,122,VALID,0.4,
2009-11-27, 00:06:04,VALID,1000.43,VALID,0,VALID,89.2971,VALID,0,VALID,23.5823,VALID,122,VALID,0.386328,
2009-11-27, 00:07:04,VALID,1000.43,VALID,0,VALID,89.2437,VALID,0,VALID,23.5841,VALID,104,VALID,0.614062,
2009-11-27, 00:08:04,VALID,1000.41,VALID,0,VALID,89.6023,VALID,0,VALID,23.5646,VALID,103,VALID,0.474219,
2009-11-27, 00:09:04,VALID,1000.44,VALID,0,VALID,89.4954,VALID,0,VALID,23.5256,VALID,104,VALID,0.560938,
2009-11-27, 00:10:04,VALID,1000.45,VALID,0,VALID,89.6633,VALID,0,VALID,23.5451,VALID,117,VALID,0.697656,
2009-11-27, 00:11:04,VALID,1000.4,VALID,0,VALID,89.9761,VALID,0,VALID,23.5238,VALID,117,VALID,0.861719,
2009-11-27, 00:12:04,VALID,1000.36,VALID,0,VALID,90.0906,VALID,0,VALID,23.5451,VALID,117,VALID,0.867188,
2009-11-27, 00:13:04,VALID,1000.37,VALID,0,VALID,90.1897,VALID,0,VALID,23.5451,VALID,117,VALID,0.875391,
2009-11-27, 00:14:05,VALID,1000.33,VALID,0,VALID,90.2203,VALID,0,VALID,23.5256,VALID,117,VALID,0.840234,
2009-11-27, 00:15:05,VALID,1000.33,VALID,0,VALID,90.2508,VALID,0,VALID,23.5061,VALID,117,VALID,0.503125,
2009-11-27, 00:16:05,VALID,1000.32,VALID,0,VALID,90.3423,VALID,0,VALID,23.4671,VALID,117,VALID,0.313281,
2009-11-27, 00:17:05,VALID,1000.28,VALID,0,VALID,90.4186,VALID,0,VALID,23.4884,VALID,117,VALID,0,
2009-11-27, 00:18:05,VALID,1000.27,VALID,0,VALID,90.3576,VALID,0,VALID,23.4493,VALID,117,VALID,0,
2009-11-27, 00:19:05,VALID,1000.24,VALID,0,VALID,90.2203,VALID,0,VALID,23.4298,VALID,117,VALID,0,
2009-11-27, 00:20:05,VALID,1000.22,VALID,0,VALID,90.0982,VALID,0,VALID,23.4298,VALID,107,VALID,0.29375,
2009-11-27, 00:21:05,VALID,1000.21,VALID,0,VALID,89.4878,VALID,0,VALID,23.4298,VALID,87,VALID,0.84375,
2009-11-27, 00:22:05,VALID,1000.22,VALID,0,VALID,89.4191,VALID,0,VALID,23.4493,VALID,87,VALID,0.669531,
2009-11-27, 00:23:05,VALID,1000.17,VALID,0,VALID,89.3963,VALID,0,VALID,23.4493,VALID,87,VALID,0.473828,
2009-11-27, 00:24:05,VALID,1000.17,VALID,0,VALID,89.5031,VALID,0,VALID,23.4475,VALID,97,VALID,0.575391,
2009-11-27, 00:25:05,VALID,1000.18,VALID,0,VALID,89.526,VALID,0,VALID,23.4493,VALID,97,VALID,0.355078,
2009-11-27, 00:26:05,VALID,1000.18,VALID,0,VALID,89.7701,VALID,0,VALID,23.428,VALID,97,VALID,0.283984,
2009-11-27, 00:27:05,VALID,1000.17,VALID,0,VALID,89.9227,VALID,0,VALID,23.4493,VALID,97,VALID,0.330859,
2009-11-27, 00:28:05,VALID,1000.16,VALID,0,VALID,90.0524,VALID,0,VALID,23.4475,VALID,97,VALID,0.327734,
2009-11-27, 00:29:05,VALID,1000.16,VALID,0,VALID,90.1058,VALID,0,VALID,23.4475,VALID,97,VALID,0.325391,
2009-11-27, 00:30:05,VALID,1000.1,VALID,0,VALID,90.0677,VALID,0,VALID,23.428,VALID,101,VALID,0.463281,
2009-11-27, 00:31:05,VALID,1000.11,VALID,0,VALID,90.2126,VALID,0,VALID,23.428,VALID,129,VALID,0.543359,
2009-11-27, 00:32:05,VALID,1000.11,VALID,0,VALID,90.266,VALID,0,VALID,23.4493,VALID,138,VALID,0.469922,
2009-11-27, 00:33:05,VALID,1000.1,VALID,0,VALID,90.2584,VALID,0,VALID,23.428,VALID,147,VALID,0.700391,
2009-11-27, 00:34:05,VALID,1000.11,VALID,0,VALID,90.3881,VALID,0,VALID,23.4493,VALID,156,VALID,0.887891,
2009-11-27, 00:35:05,VALID,1000.1,VALID,0,VALID,90.1211,VALID,0,VALID,23.4493,VALID,157,VALID,0.842969,
2009-11-27, 00:36:05,VALID,1000.05,VALID,0,VALID,90.7391,VALID,0,VALID,23.4866,VALID,166,VALID,1.40898,
2009-11-27, 00:37:05,VALID,1000.05,VALID,0,VALID,90.8611,VALID,0,VALID,23.5274,VALID,178,VALID,1.33008,
2009-11-27, 00:38:05,VALID,1000.02,VALID,0,VALID,90.8154,VALID,0,VALID,23.5061,VALID,168,VALID,1.24375,
2009-11-27, 00:39:05,VALID,1000.04,VALID,0,VALID,90.823,VALID,0,VALID,23.5079,VALID,169,VALID,1.57187,
2009-11-27, 00:40:05,VALID,999.995,VALID,0,VALID,90.617,VALID,0,VALID,23.4884,VALID,171,VALID,1.76445,
2009-11-27, 00:41:05,VALID,999.997,VALID,0,VALID,90.6857,VALID,0,VALID,23.4475,VALID,176,VALID,1.75547,
2009-11-27, 00:42:05,VALID,999.976,VALID,0,VALID,90.6857,VALID,0,VALID,23.4493,VALID,160,VALID,1.35508,
2009-11-27, 00:43:05,VALID,999.974,VALID,0,VALID,90.9374,VALID,0,VALID,23.428,VALID,150,VALID,1.34609,
2009-11-27, 00:44:05,VALID,999.904,VALID,0,VALID,91.1282,VALID,0,VALID,23.4493,VALID,143,VALID,1.38516,
2009-11-27, 00:45:05,VALID,999.904,VALID,0,VALID,90.968,VALID,0,VALID,23.4085,VALID,143,VALID,1.17813,
2009-11-27, 00:46:05,VALID,999.881,VALID,0,VALID,90.6704,VALID,0,VALID,23.3908,VALID,140,VALID,1.34922,
2009-11-27, 00:47:05,VALID,999.872,VALID,0,VALID,90.7925,VALID,0,VALID,23.3713,VALID,136,VALID,0.906641,
2009-11-27, 00:48:05,VALID,999.841,VALID,0,VALID,90.7772,VALID,0,VALID,23.3305,VALID,133,VALID,0.4875,
2009-11-27, 00:49:05,VALID,999.842,VALID,0,VALID,90.7314,VALID,0,VALID,23.311,VALID,129,VALID,0.617188,
2009-11-27, 00:50:05,VALID,999.849,VALID,0,VALID,90.8154,VALID,0,VALID,23.311,VALID,126,VALID,0.662891,
2009-11-27, 00:51:05,VALID,999.842,VALID,0,VALID,90.762,VALID,0,VALID,23.3127,VALID,112,VALID,0.941406,
2009-11-27, 00:52:05,VALID,999.817,VALID,0,VALID,90.9069,VALID,0,VALID,23.3127,VALID,94,VALID,1.00664,
2009-11-27, 00:53:05,VALID,999.804,VALID,0,VALID,91.0671,VALID,0,VALID,23.3323,VALID,74,VALID,1.14219,
2009-11-27, 00:54:05,VALID,999.814,VALID,0,VALID,91.3571,VALID,0,VALID,23.3323,VALID,83,VALID,1.50312,
2009-11-27, 00:55:05,VALID,999.846,VALID,0,VALID,91.4944,VALID,0,VALID,23.3518,VALID,49,VALID,0.821094,
2009-11-27, 00:56:05,VALID,999.887,VALID,0,VALID,91.4868,VALID,0,VALID,23.3305,VALID,39,VALID,0.509375,
2009-11-27, 00:57:05,VALID,999.861,VALID,0,VALID,91.502,VALID,0,VALID,23.3323,VALID,39,VALID,0.340234,
2009-11-27, 00:58:05,VALID,999.848,VALID,0,VALID,91.5249,VALID,0,VALID,23.3127,VALID,33,VALID,0.644531,
2009-11-27, 00:59:05,VALID,999.82,VALID,0,VALID,91.5478,VALID,0,VALID,23.2915,VALID,32,VALID,0.463672,
2009-11-27, 01:00:05,VALID,999.776,VALID,0,VALID,91.5936,VALID,0,VALID,23.2915,VALID,31,VALID,0.462891,
2009-11-27, 01:01:05,VALID,999.799,VALID,0,VALID,91.5783,VALID,0,VALID,23.2719,VALID,59,VALID,0.964453,
2009-11-27, 01:02:05,VALID,999.77,VALID,0,VALID,91.6241,VALID,0,VALID,23.2932,VALID,83,VALID,1.16406,
2009-11-27, 01:03:05,VALID,999.757,VALID,0,VALID,91.6165,VALID,0,VALID,23.2524,VALID,95,VALID,1.52148,
2009-11-27, 01:04:05,VALID,999.682,VALID,0,VALID,91.6317,VALID,0,VALID,23.2737,VALID,84,VALID,1.4875,
2009-11-27, 01:05:05,VALID,999.732,VALID,0,VALID,91.6088,VALID,0,VALID,23.2737,VALID,40,VALID,0.551562,
2009-11-27, 01:06:05,VALID,999.773,VALID,0,VALID,91.6241,VALID,0,VALID,23.2719,VALID,277,VALID,1.35547,
2009-11-27, 01:07:05,VALID,999.801,VALID,0,VALID,91.586,VALID,0,VALID,23.2932,VALID,276,VALID,1.2957,
2009-11-27, 01:08:05,VALID,999.831,VALID,0,VALID,91.5249,VALID,0,VALID,23.2915,VALID,282,VALID,0.886719,
2009-11-27, 01:09:05,VALID,999.792,VALID,0,VALID,91.3876,VALID,0,VALID,23.3127,VALID,280,VALID,0.466797,
2009-11-27, 01:10:05,VALID,999.768,VALID,0,VALID,91.2197,VALID,0,VALID,23.2719,VALID,280,VALID,0.288281,
2009-11-27, 01:11:05,VALID,999.744,VALID,0,VALID,91.1358,VALID,0,VALID,23.2915,VALID,280,VALID,0,
2009-11-27, 01:12:05,VALID,999.769,VALID,0,VALID,91.2121,VALID,0,VALID,23.2932,VALID,280,VALID,0.359375,
2009-11-27, 01:13:05,VALID,999.672,VALID,0,VALID,90.6857,VALID,0,VALID,23.2719,VALID,69,VALID,0.741016,
2009-11-27, 01:14:05,VALID,999.695,VALID,0,VALID,90.6857,VALID,0,VALID,23.3127,VALID,90,VALID,0.726953,
2009-11-27, 01:15:05,VALID,999.692,VALID,0,VALID,90.7085,VALID,0,VALID,23.2915,VALID,91,VALID,0.508594,
2009-11-27, 01:16:05,VALID,999.681,VALID,0,VALID,90.0295,VALID,0,VALID,23.2737,VALID,106,VALID,0.712891,
2009-11-27, 01:17:05,VALID,999.669,VALID,0,VALID,90.1287,VALID,0,VALID,23.3127,VALID,99,VALID,0.544141,
2009-11-27, 01:18:05,VALID,999.669,VALID,0,VALID,90.06,VALID,0,VALID,23.3305,VALID,99,VALID,0.200391,
2009-11-27, 01:19:05,VALID,999.683,VALID,0,VALID,90.1897,VALID,0,VALID,23.35,VALID,99,VALID,0.272656,
2009-11-27, 01:20:05,VALID,999.672,VALID,0,VALID,90.2279,VALID,0,VALID,23.3518,VALID,99,VALID,0.226563,
2009-11-27, 01:21:05,VALID,999.667,VALID,0,VALID,90.2813,VALID,0,VALID,23.311,VALID,99,VALID,0,
2009-11-27, 01:22:05,VALID,999.666,VALID,0,VALID,90.3652,VALID,0,VALID,23.3323,VALID,54,VALID,0.313281,
2009-11-27, 01:23:05,VALID,999.655,VALID,0,VALID,90.7009,VALID,0,VALID,23.3305,VALID,337,VALID,0.885156,
2009-11-27, 01:24:05,VALID,999.666,VALID,0,VALID,90.8154,VALID,0,VALID,23.35,VALID,339,VALID,0.825781,
2009-11-27, 01:25:05,VALID,999.68,VALID,0,VALID,91.0214,VALID,0,VALID,23.3305,VALID,339,VALID,0.650391,
2009-11-27, 01:26:05,VALID,999.653,VALID,0,VALID,91.1206,VALID,0,VALID,23.2915,VALID,339,VALID,0.504687,
2009-11-27, 01:27:05,VALID,999.681,VALID,0,VALID,91.174,VALID,0,VALID,23.2915,VALID,339,VALID,0.028125,
2009-11-27, 01:28:05,VALID,999.703,VALID,0,VALID,91.2121,VALID,0,VALID,23.2719,VALID,339,VALID,0,
2009-11-27, 01:29:05,VALID,999.688,VALID,0,VALID,91.174,VALID,0,VALID,23.2524,VALID,339,VALID,0,
2009-11-27, 01:30:05,VALID,999.668,VALID,0,VALID,91.2274,VALID,0,VALID,23.2524,VALID,339,VALID,0.559375,
2009-11-27, 01:31:05,VALID,999.648,VALID,0,VALID,91.09,VALID,0,VALID,23.2329,VALID,36,VALID,0.706641,
2009-11-27, 01:32:05,VALID,999.642,VALID,0,VALID,90.9298,VALID,0,VALID,23.2134,VALID,36,VALID,0.694141,
2009-11-27, 01:33:05,VALID,999.658,VALID,0,VALID,90.8535,VALID,0,VALID,23.2134,VALID,43,VALID,0.66875,
2009-11-27, 01:34:05,VALID,999.618,VALID,0,VALID,90.8611,VALID,0,VALID,23.2134,VALID,63,VALID,0.732031,
2009-11-27, 01:35:05,VALID,999.629,VALID,0,VALID,90.8001,VALID,0,VALID,23.1939,VALID,73,VALID,0.946484,
2009-11-27, 01:36:05,VALID,999.615,VALID,0,VALID,90.8993,VALID,0,VALID,23.2134,VALID,76,VALID,0.904688,
2009-11-27, 01:37:05,VALID,999.571,VALID,0,VALID,90.9527,VALID,0,VALID,23.2134,VALID,77,VALID,1.13008,
2009-11-27, 01:38:05,VALID,999.589,VALID,0,VALID,90.9756,VALID,0,VALID,23.2347,VALID,75,VALID,1.07305,
2009-11-27, 01:39:05,VALID,999.587,VALID,0,VALID,90.9985,VALID,0,VALID,23.2542,VALID,65,VALID,1.20117,
2009-11-27, 01:40:05,VALID,999.594,VALID,0,VALID,90.9451,VALID,0,VALID,23.2134,VALID,67,VALID,1.15195,
2009-11-27, 01:41:05,VALID,999.591,VALID,0,VALID,90.884,VALID,0,VALID,23.2134,VALID,68,VALID,0.790234,
2009-11-27, 01:42:05,VALID,999.591,VALID,0,VALID,90.6933,VALID,0,VALID,23.2134,VALID,74,VALID,0.775781,
2009-11-27, 01:43:05,VALID,999.591,VALID,0,VALID,90.7849,VALID,0,VALID,23.1939,VALID,76,VALID,0.399219,
2009-11-27, 01:44:05,VALID,999.584,VALID,0,VALID,90.7543,VALID,0,VALID,23.1939,VALID,81,VALID,0.371094,
2009-11-27, 01:45:05,VALID,999.553,VALID,0,VALID,90.8764,VALID,0,VALID,23.2347,VALID,95,VALID,0.591797,
2009-11-27, 01:46:05,VALID,999.553,VALID,0,VALID,90.7162,VALID,0,VALID,23.1939,VALID,105,VALID,0.651172,
2009-11-27, 01:47:05,VALID,999.569,VALID,0,VALID,90.5636,VALID,0,VALID,23.1939,VALID,105,VALID,0.503906,
2009-11-27, 01:48:05,VALID,999.57,VALID,0,VALID,90.5941,VALID,0,VALID,23.2134,VALID,105,VALID,0.326953,
2009-11-27, 01:49:05,VALID,999.571,VALID,0,VALID,90.7543,VALID,0,VALID,23.2347,VALID,172,VALID,0.778906,
2009-11-27, 01:50:05,VALID,999.594,VALID,0,VALID,91.0137,VALID,0,VALID,23.2524,VALID,168,VALID,0.700391,
2009-11-27, 01:51:05,VALID,999.532,VALID,0,VALID,90.6017,VALID,0,VALID,23.2524,VALID,120,VALID,0.972656,
2009-11-27, 01:52:05,VALID,999.48,VALID,0,VALID,90.5178,VALID,0,VALID,23.2719,VALID,116,VALID,1.53516,
2009-11-27, 01:53:05,VALID,999.503,VALID,0,VALID,90.6094,VALID,0,VALID,23.3127,VALID,131,VALID,1.1793,
2009-11-27, 01:54:05,VALID,999.508,VALID,0,VALID,90.3271,VALID,0,VALID,23.2915,VALID,136,VALID,1.24883,
2009-11-27, 01:55:05,VALID,999.491,VALID,0,VALID,90.2508,VALID,0,VALID,23.2719,VALID,114,VALID,0.782812,
2009-11-27, 01:56:05,VALID,999.513,VALID,0,VALID,90.3881,VALID,0,VALID,23.2737,VALID,105,VALID,0.596094,
2009-11-27, 01:57:05,VALID,999.513,VALID,0,VALID,90.4568,VALID,0,VALID,23.2524,VALID,101,VALID,0.260547,
2009-11-27, 01:58:05,VALID,999.528,VALID,0,VALID,90.4797,VALID,0,VALID,23.2524,VALID,101,VALID,0.112109,
2009-11-27, 01:59:05,VALID,999.544,VALID,0,VALID,90.4873,VALID,0,VALID,23.2329,VALID,57,VALID,0.614062,
2009-11-27, 02:00:05,VALID,999.543,VALID,0,VALID,90.5941,VALID,0,VALID,23.2329,VALID,29,VALID,0.487109,
2009-11-27, 02:01:05,VALID,999.579,VALID,0,VALID,90.6246,VALID,0,VALID,23.2329,VALID,29,VALID,0.0648438,
2009-11-27, 02:02:05,VALID,999.54,VALID,0,VALID,90.7162,VALID,0,VALID,23.2329,VALID,340,VALID,0,
2009-11-27, 02:03:05,VALID,999.571,VALID,0,VALID,90.6628,VALID,0.112286,VALID,23.2117,VALID,253,VALID,0.974219,
2009-11-27, 02:04:05,VALID,999.554,VALID,0,VALID,90.3805,VALID,0.112286,VALID,23.1921,VALID,249,VALID,0.867578,
2009-11-27, 02:05:05,VALID,999.519,VALID,0,VALID,89.6633,VALID,0,VALID,23.1921,VALID,230,VALID,0.5375,
2009-11-27, 02:06:05,VALID,999.484,VALID,0,VALID,89.4726,VALID,0.112286,VALID,23.1921,VALID,175,VALID,0.458594,
2009-11-27, 02:07:05,VALID,999.473,VALID,0,VALID,89.526,VALID,0,VALID,23.2312,VALID,126,VALID,0.9,
2009-11-27, 02:08:05,VALID,999.456,VALID,0,VALID,89.0377,VALID,0,VALID,23.2134,VALID,115,VALID,0.946875,
2009-11-27, 02:09:05,VALID,999.459,VALID,0,VALID,89.0453,VALID,0,VALID,23.2117,VALID,96,VALID,0.978516,
2009-11-27, 02:10:05,VALID,999.461,VALID,0,VALID,89.0682,VALID,0,VALID,23.2329,VALID,100,VALID,1.09141,
2009-11-27, 02:11:05,VALID,999.484,VALID,0,VALID,89.3123,VALID,0,VALID,23.2312,VALID,100,VALID,0.769922,
2009-11-27, 02:12:05,VALID,999.481,VALID,0,VALID,89.6175,VALID,0.112286,VALID,23.2312,VALID,100,VALID,0.510938,
2009-11-27, 02:13:05,VALID,999.487,VALID,0,VALID,89.1903,VALID,0,VALID,23.1921,VALID,100,VALID,0.0375,
2009-11-27, 02:14:05,VALID,999.505,VALID,0,VALID,89.1368,VALID,0,VALID,23.1921,VALID,100,VALID,0.111719,
2009-11-27, 02:15:05,VALID,999.488,VALID,0,VALID,89.0911,VALID,0,VALID,23.1744,VALID,100,VALID,0,
2009-11-27, 02:16:05,VALID,999.519,VALID,0,VALID,89.3657,VALID,0,VALID,23.1744,VALID,100,VALID,0,
2009-11-27, 02:17:05,VALID,999.524,VALID,0,VALID,89.1063,VALID,0,VALID,23.1744,VALID,100,VALID,0.0402344,
2009-11-27, 02:18:05,VALID,999.527,VALID,0,VALID,89.2971,VALID,0,VALID,23.1744,VALID,100,VALID,0.275391,
2009-11-27, 02:19:05,VALID,999.507,VALID,0,VALID,89.526,VALID,0,VALID,23.1744,VALID,100,VALID,0.578906,
2009-11-27, 02:20:05,VALID,999.468,VALID,0,VALID,89.6175,VALID,0,VALID,23.1744,VALID,100,VALID,0.808203,
2009-11-27, 02:21:05,VALID,999.444,VALID,0,VALID,89.5946,VALID,0,VALID,23.1939,VALID,100,VALID,1.18125,
2009-11-27, 02:22:05,VALID,999.465,VALID,0,VALID,90.3347,VALID,0,VALID,23.2134,VALID,102,VALID,1.05,
2009-11-27, 02:23:05,VALID,999.457,VALID,0,VALID,90.2966,VALID,0,VALID,23.2134,VALID,109,VALID,1.21602,
2009-11-27, 02:24:05,VALID,999.438,VALID,0,VALID,90.472,VALID,0,VALID,23.2134,VALID,108,VALID,1.22773,
2009-11-27, 02:25:05,VALID,999.443,VALID,0,VALID,90.3728,VALID,0,VALID,23.1939,VALID,113,VALID,1.01211,
2009-11-27, 02:26:05,VALID,999.477,VALID,0,VALID,89.5565,VALID,0,VALID,23.1549,VALID,117,VALID,1.12227,
2009-11-27, 02:27:05,VALID,999.53,VALID,0,VALID,89.32,VALID,0,VALID,23.1354,VALID,119,VALID,0.748828,
2009-11-27, 02:28:05,VALID,999.505,VALID,0,VALID,89.3581,VALID,0,VALID,23.1354,VALID,122,VALID,0.282422,
2009-11-27, 02:29:05,VALID,999.529,VALID,0,VALID,89.2589,VALID,0,VALID,23.1371,VALID,122,VALID,0.185937,
2009-11-27, 02:30:05,VALID,999.51,VALID,0,VALID,89.3657,VALID,0,VALID,23.1159,VALID,122,VALID,0.374609,
2009-11-27, 02:31:05,VALID,999.525,VALID,0,VALID,89.4344,VALID,0,VALID,23.0964,VALID,110,VALID,0.278125,
2009-11-27, 02:32:05,VALID,999.546,VALID,0,VALID,89.2971,VALID,0,VALID,23.0769,VALID,109,VALID,0.198828,
2009-11-27, 02:33:05,VALID,999.56,VALID,0,VALID,89.4573,VALID,0,VALID,23.0769,VALID,109,VALID,0,
2009-11-27, 02:34:05,VALID,999.555,VALID,0,VALID,89.5489,VALID,0,VALID,23.0769,VALID,108,VALID,0,
2009-11-27, 02:35:05,VALID,999.564,VALID,0,VALID,89.5183,VALID,0,VALID,23.0769,VALID,80,VALID,0,
2009-11-27, 02:36:05,VALID,999.54,VALID,0,VALID,89.5489,VALID,0,VALID,23.0573,VALID,70,VALID,0.905078,
2009-11-27, 02:37:05,VALID,999.525,VALID,0,VALID,89.4115,VALID,0,VALID,23.0378,VALID,64,VALID,1.1,
2009-11-27, 02:38:05,VALID,999.552,VALID,0,VALID,89.2818,VALID,0,VALID,23.0378,VALID,42,VALID,0.993359,
2009-11-27, 02:39:05,VALID,999.591,VALID,0,VALID,89.2284,VALID,0,VALID,23.0378,VALID,40,VALID,0.831641,
2009-11-27, 02:40:05,VALID,999.631,VALID,0,VALID,88.9843,VALID,0,VALID,23.0183,VALID,14,VALID,0.962891,
2009-11-27, 02:41:05,VALID,999.623,VALID,0,VALID,89.1292,VALID,0,VALID,22.9988,VALID,3,VALID,0.737109,
2009-11-27, 02:42:05,VALID,999.664,VALID,0,VALID,89.2666,VALID,0,VALID,22.9988,VALID,1,VALID,0.403906,
2009-11-27, 02:43:05,VALID,999.68,VALID,0,VALID,89.5489,VALID,0,VALID,22.9988,VALID,1,VALID,0,
2009-11-27, 02:44:05,VALID,999.667,VALID,0,VALID,89.6709,VALID,0,VALID,23.0006,VALID,1,VALID,0,
2009-11-27, 02:45:05,VALID,999.671,VALID,0,VALID,89.7243,VALID,0,VALID,23.0006,VALID,37,VALID,0.796484,
2009-11-27, 02:46:05,VALID,999.672,VALID,0,VALID,89.5336,VALID,0,VALID,22.9811,VALID,35,VALID,1.07305,
2009-11-27, 02:47:05,VALID,999.694,VALID,0,VALID,89.4649,VALID,0,VALID,22.9811,VALID,39,VALID,1.33359,
2009-11-27, 02:48:05,VALID,999.698,VALID,0,VALID,89.6175,VALID,0,VALID,22.9598,VALID,25,VALID,1.56719,
2009-11-27, 02:49:05,VALID,999.742,VALID,0,VALID,89.7243,VALID,0,VALID,22.9208,VALID,32,VALID,0.957031,
2009-11-27, 02:50:05,VALID,999.789,VALID,0,VALID,89.526,VALID,0,VALID,22.9225,VALID,48,VALID,0.780859,
2009-11-27, 02:51:05,VALID,999.785,VALID,0,VALID,89.1826,VALID,0,VALID,22.903,VALID,76,VALID,0.758203,
2009-11-27, 02:52:05,VALID,999.763,VALID,0,VALID,89.3734,VALID,0,VALID,22.9225,VALID,84,VALID,1.0793,
2009-11-27, 02:53:05,VALID,999.773,VALID,0,VALID,89.114,VALID,0,VALID,22.9013,VALID,77,VALID,1.42813,
2009-11-27, 02:54:05,VALID,999.766,VALID,0,VALID,89.1979,VALID,0,VALID,22.9013,VALID,75,VALID,1.58945,
2009-11-27, 02:55:05,VALID,999.779,VALID,0,VALID,89.3123,VALID,0,VALID,22.942,VALID,75,VALID,1.21523,
2009-11-27, 02:56:05,VALID,999.826,VALID,0,VALID,89.6175,VALID,0,VALID,22.9208,VALID,81,VALID,0.677734,
2009-11-27, 02:57:05,VALID,999.818,VALID,0,VALID,89.7014,VALID,0,VALID,22.9208,VALID,84,VALID,0.742969,
2009-11-27, 02:58:04,VALID,999.804,VALID,0,VALID,89.7701,VALID,0,VALID,22.942,VALID,84,VALID,0.81875,
2009-11-27, 02:59:04,VALID,999.776,VALID,0,VALID,89.9685,VALID,0,VALID,22.9225,VALID,84,VALID,0.942578,
2009-11-27, 03:00:04,VALID,999.807,VALID,0,VALID,90.3042,VALID,0,VALID,22.942,VALID,86,VALID,0.698438,
2009-11-27, 03:01:04,VALID,999.804,VALID,0,VALID,90.3881,VALID,0,VALID,22.9208,VALID,86,VALID,0.297266,
2009-11-27, 03:02:04,VALID,999.839,VALID,0,VALID,90.5026,VALID,0,VALID,22.9208,VALID,86,VALID,0.151953,
2009-11-27, 03:03:04,VALID,999.852,VALID,0,VALID,90.5788,VALID,0,VALID,22.9225,VALID,86,VALID,0,
2009-11-27, 03:04:04,VALID,999.866,VALID,0,VALID,90.6704,VALID,0,VALID,22.9013,VALID,85,VALID,0,
2009-11-27, 03:05:04,VALID,999.88,VALID,0,VALID,90.617,VALID,0,VALID,22.9225,VALID,85,VALID,0,
2009-11-27, 03:06:04,VALID,999.903,VALID,0,VALID,90.6323,VALID,0,VALID,22.8835,VALID,85,VALID,0,
2009-11-27, 03:07:04,VALID,999.924,VALID,0,VALID,90.5407,VALID,0,VALID,22.8623,VALID,85,VALID,0.507422,
2009-11-27, 03:08:04,VALID,999.959,VALID,0,VALID,90.2355,VALID,0,VALID,22.864,VALID,84,VALID,0.708984,
2009-11-27, 03:09:04,VALID,999.944,VALID,0,VALID,90.2203,VALID,0,VALID,22.864,VALID,85,VALID,0.930078,
2009-11-27, 03:10:04,VALID,999.962,VALID,0,VALID,89.8083,VALID,0,VALID,22.8623,VALID,83,VALID,0.867578,
2009-11-27, 03:11:04,VALID,999.99,VALID,0,VALID,89.1979,VALID,0,VALID,22.8427,VALID,66,VALID,0.616016,
2009-11-27, 03:12:04,VALID,1000.04,VALID,0,VALID,89.2513,VALID,0,VALID,22.8427,VALID,61,VALID,0.00195313,
2009-11-27, 03:13:04,VALID,1000.03,VALID,0,VALID,89.2666,VALID,0,VALID,22.864,VALID,55,VALID,0.125781,
2009-11-27, 03:14:04,VALID,1000.05,VALID,0,VALID,89.1979,VALID,0,VALID,22.864,VALID,55,VALID,0,
2009-11-27, 03:15:04,VALID,1000.05,VALID,0,VALID,89.2666,VALID,0,VALID,22.864,VALID,55,VALID,0.129297,
2009-11-27, 03:16:04,VALID,1000.07,VALID,0,VALID,89.5107,VALID,0,VALID,22.8427,VALID,59,VALID,0.465625,
2009-11-27, 03:17:04,VALID,1000.08,VALID,0,VALID,89.3276,VALID,0,VALID,22.8445,VALID,76,VALID,0.793359,
2009-11-27, 03:18:04,VALID,1000.1,VALID,0,VALID,89.2513,VALID,0,VALID,22.8445,VALID,82,VALID,0.896484,
2009-11-27, 03:19:04,VALID,1000.1,VALID,0,VALID,88.9919,VALID,0,VALID,22.864,VALID,92,VALID,0.819922,
2009-11-27, 03:20:04,VALID,1000.12,VALID,0,VALID,88.9614,VALID,0,VALID,22.864,VALID,94,VALID,0.556641,
2009-11-27, 03:21:04,VALID,1000.14,VALID,0,VALID,89.2437,VALID,0,VALID,22.8623,VALID,95,VALID,0.766406,
2009-11-27, 03:22:04,VALID,1000.14,VALID,0,VALID,89.2894,VALID,0,VALID,22.8623,VALID,95,VALID,0.605469,
2009-11-27, 03:23:04,VALID,1000.14,VALID,0,VALID,89.6175,VALID,0,VALID,22.8835,VALID,95,VALID,0.269922,
2009-11-27, 03:24:04,VALID,1000.16,VALID,0,VALID,89.7167,VALID,0,VALID,22.8623,VALID,95,VALID,0.0519531,
2009-11-27, 03:25:04,VALID,1000.17,VALID,0,VALID,89.793,VALID,0,VALID,22.8427,VALID,95,VALID,0,
2009-11-27, 03:26:04,VALID,1000.19,VALID,0,VALID,89.9074,VALID,0,VALID,22.8427,VALID,95,VALID,0,
2009-11-27, 03:27:04,VALID,1000.21,VALID,0,VALID,89.8464,VALID,0,VALID,22.8445,VALID,95,VALID,0,
2009-11-27, 03:28:04,VALID,1000.22,VALID,0,VALID,89.9685,VALID,0,VALID,22.8232,VALID,95,VALID,0,
2009-11-27, 03:29:04,VALID,1000.21,VALID,0,VALID,89.8464,VALID,0,VALID,22.8445,VALID,95,VALID,0,
2009-11-27, 03:30:04,VALID,1000.23,VALID,0,VALID,89.5946,VALID,0,VALID,22.825,VALID,95,VALID,0,
2009-11-27, 03:31:04,VALID,1000.27,VALID,0,VALID,89.8388,VALID,0.112286,VALID,22.8427,VALID,95,VALID,0,
2009-11-27, 03:32:04,VALID,1000.26,VALID,0,VALID,89.9837,VALID,0,VALID,22.841,VALID,95,VALID,0,
2009-11-27, 03:33:04,VALID,1000.24,VALID,0,VALID,90.2889,VALID,0,VALID,22.841,VALID,95,VALID,0.233203,
2009-11-27, 03:34:04,VALID,1000.25,VALID,0,VALID,90.5407,VALID,0.112286,VALID,22.88,VALID,95,VALID,0.703125,
2009-11-27, 03:35:04,VALID,1000.26,VALID,0,VALID,90.2889,VALID,0,VALID,22.8818,VALID,95,VALID,0.957812,
2009-11-27, 03:36:04,VALID,1000.28,VALID,0,VALID,90.0219,VALID,0,VALID,22.8427,VALID,84,VALID,1.28555,
2009-11-27, 03:37:04,VALID,1000.27,VALID,0,VALID,88.9385,VALID,0.112286,VALID,22.8215,VALID,81,VALID,1.51094,
2009-11-27, 03:38:04,VALID,1000.31,VALID,0,VALID,89.6328,VALID,0,VALID,22.8818,VALID,77,VALID,1.29805,
2009-11-27, 03:39:04,VALID,1000.28,VALID,0,VALID,90.06,VALID,0,VALID,22.9013,VALID,69,VALID,0.846094,
2009-11-27, 03:40:04,VALID,1000.3,VALID,0,VALID,90.1592,VALID,0.112286,VALID,22.88,VALID,43,VALID,0.60625,
2009-11-27, 03:41:04,VALID,1000.34,VALID,0,VALID,90.1211,VALID,0,VALID,22.88,VALID,41,VALID,0.967188,
2009-11-27, 03:42:04,VALID,1000.33,VALID,0,VALID,90.2508,VALID,0.112286,VALID,22.8605,VALID,43,VALID,0.694922,
2009-11-27, 03:43:04,VALID,1000.32,VALID,0,VALID,89.9914,VALID,0.112286,VALID,22.8215,VALID,39,VALID,1.05352,
2009-11-27, 03:44:04,VALID,1000.33,VALID,0,VALID,88.9995,VALID,0.112286,VALID,22.763,VALID,50,VALID,0.841797,
2009-11-27, 03:45:04,VALID,1000.3,VALID,0,VALID,88.7477,VALID,0,VALID,22.724,VALID,53,VALID,0.744531,
2009-11-27, 03:46:04,VALID,1000.32,VALID,0,VALID,88.7401,VALID,0,VALID,22.7257,VALID,53,VALID,0.59375,
2009-11-27, 03:47:04,VALID,1000.33,VALID,0,VALID,88.7935,VALID,0,VALID,22.7452,VALID,54,VALID,0.64375,